Ukiah, CA

12:32 PM PST on February 11, 2016 (GMT -0800)
Ukiah Municipal

Weather History for KUKI - May, 2013

Change the Weather History Date:

Sunday, May 26, 2013

  Actual Average Record
Temperature  
Mean Temperature 62 °F 63 °F  
Max Temperature 73 °F 79 °F 99 °F (1951)
Min Temperature 51 °F 48 °F 34 °F (1917)
Degree Days  
Heating Degree Days 4 3  
Month to date heating degree days 126  
Since 1 July heating degree days 3072  
Cooling Degree Days 0 2  
Month to date cooling degree days 38  
Year to date cooling degree days 46  
Growing Degree Days 11 (Base 50)    
Moisture  
Dew Point 44 °F    
Average Humidity 57    
Maximum Humidity 83    
Minimum Humidity 31    
Precipitation  
Precipitation 0.00 in 0.03 in 1.50 in (1993)
Month to date precipitation 0.02 1.29  
Year to date precipitation 5.15 22.91  
Since 1 July precipitation 27.85  
Snow  
Snow 0.00 in - - ()
Month to date snowfall 0.0  
Since 1 July snowfall 0.0  
Snow Depth -    
Sea Level Pressure  
Sea Level Pressure 30.07 in    
Wind  
Wind Speed 8 mph (NW)    
Max Wind Speed 18 mph    
Max Gust Speed 25 mph    
Visibility 10 miles    
Events      
T = Trace of Precipitation, MM = Missing Value Source: NWS Daily Summary

Daily Weather History Graph

Daily Weather History Graph

Search for Another Location

Airport or City:

Trip Planner

Search our weather history database for the weather conditions in past years. The results will help you decide how hot, cold, wet, or windy it might be!

Date:

Astronomy

May. 26, 2013 Rise Set
Actual Time 5:51 AM PDT 8:28 PM PDT
Civil Twilight 5:20 AM PDT 9:00 PM PDT
Nautical Twilight 4:41 AM PDT 9:38 PM PDT
Astronomical Twilight 3:58 AM PDT 10:22 PM PDT
Moon 10:21 PM PDT (5/26) 7:26 AM PDT (5/26)
Length of Visible Light 15h 39m
Length of Day
14h 37m
Waning Gibbous, 96% of the Moon is Illuminated
May 26
Waning Gibbous
May 31
Last Quarter
Jun 8
New
Jun 16
First Quarter
Jun 23
Full

Hourly Weather History & Observations

Time (PDT) Temp. Dew Point Humidity Pressure Visibility Wind Dir Wind Speed Gust Speed Precip Events Conditions
12:56 AM 53.1 °F 46.0 °F 77% 30.06 in 10.0 mi Calm Calm - N/A   Clear
1:56 AM 51.1 °F 45.0 °F 80% 30.05 in 10.0 mi Calm Calm - N/A   Clear
2:17 AM 53.6 °F 46.4 °F 77% 30.06 in 10.0 mi Calm Calm - N/A   Mostly Cloudy
2:56 AM 54.0 °F 46.9 °F 77% 30.04 in 10.0 mi North 4.6 mph - N/A   Scattered Clouds
3:53 AM 53.6 °F 46.4 °F 77% 30.06 in 10.0 mi Calm Calm - N/A   Mostly Cloudy
3:56 AM 52.0 °F 46.9 °F 83% 30.04 in 10.0 mi NW 3.5 mph - N/A   Scattered Clouds
4:56 AM 55.0 °F 48.9 °F 80% 30.04 in 10.0 mi North 4.6 mph - N/A   Overcast
5:56 AM 55.0 °F 48.0 °F 77% 30.05 in 10.0 mi North 5.8 mph - N/A   Overcast
6:56 AM 55.9 °F 46.0 °F 69% 30.06 in 10.0 mi NW 10.4 mph - N/A   Scattered Clouds
7:52 AM 59.0 °F 46.4 °F 63% 30.09 in 10.0 mi NW 5.8 mph - N/A   Mostly Cloudy
7:56 AM 59.0 °F 46.9 °F 64% 30.08 in 10.0 mi North 5.8 mph - N/A   Mostly Cloudy
8:56 AM 61.0 °F 46.0 °F 58% 30.09 in 10.0 mi NNW 8.1 mph - N/A   Overcast
9:27 AM 62.6 °F 46.4 °F 55% 30.10 in 10.0 mi NNW 8.1 mph - N/A   Mostly Cloudy
9:56 AM 64.0 °F 46.9 °F 54% 30.08 in 10.0 mi NW 6.9 mph - N/A   Partly Cloudy
10:56 AM 66.9 °F 44.1 °F 44% 30.07 in 10.0 mi WNW 10.4 mph 18.4 mph N/A   Scattered Clouds
11:56 AM 69.1 °F 45.0 °F 42% 30.08 in 10.0 mi WNW 10.4 mph 16.1 mph N/A   Scattered Clouds
12:56 PM 70.0 °F 43.0 °F 38% 30.07 in 10.0 mi WNW 9.2 mph 17.3 mph N/A   Partly Cloudy
1:56 PM 71.1 °F 39.0 °F 31% 30.06 in 10.0 mi NW 15.0 mph 23.0 mph N/A   Clear
2:56 PM 71.1 °F 39.9 °F 32% 30.06 in 10.0 mi West 11.5 mph 20.7 mph N/A   Clear
3:56 PM 71.1 °F 39.0 °F 31% 30.05 in 10.0 mi WNW 13.8 mph - N/A   Clear
4:56 PM 70.0 °F 41.0 °F 35% 30.04 in 10.0 mi West 9.2 mph 20.7 mph N/A   Clear
5:56 PM 69.1 °F 42.1 °F 38% 30.05 in 10.0 mi West 5.8 mph - N/A   Clear
6:56 PM 66.0 °F 43.0 °F 43% 30.05 in 10.0 mi Variable 3.5 mph - N/A   Clear
7:56 PM 63.0 °F 39.9 °F 43% 30.06 in 10.0 mi Calm Calm - N/A   Clear
8:56 PM 59.0 °F 43.0 °F 55% 30.10 in 10.0 mi North 9.2 mph - N/A   Clear
9:56 PM 57.9 °F 43.0 °F 58% 30.11 in 10.0 mi North 10.4 mph - N/A   Clear
10:56 PM 55.9 °F 43.0 °F 62% 30.12 in 10.0 mi North 9.2 mph - N/A   Clear
11:56 PM 55.0 °F 44.1 °F 67% 30.14 in 10.0 mi North 8.1 mph - N/A   Clear